VK3XEM-13 Weather Reports


Display with metric or nautical units.
time (UTC)temp
F
wind
direction
speed
MPH
gust
MPH
rain 1hr
in
rain 24hr
in
rain mn
in
humidity
%
barometer
mb
20260504060214 61 186 8.0 15.0 0.00 0.00 0.00 61 1008.3
20260504050214 62 162 10.0 14.0 0.00 0.00 0.00 59 1008.0
20260504044714 63 192 10.0 14.0 0.00 0.00 0.00 57 1008.0
20260504043214 64 203 14.0 16.0 0.00 0.00 0.00 54 1008.0
20260504041714 64 138 9.0 14.0 0.00 0.00 0.00 52 1008.0
20260504040214 63 245 11.0 12.0 0.00 0.00 0.00 54 1008.0
20260504034714 63 177 3.0 20.0 0.00 0.00 0.00 55 1008.0
20260504033214 64 201 4.0 15.0 0.00 0.00 0.00 52 1008.0
20260504031714 63 214 7.0 18.0 0.00 0.00 0.00 55 1008.0
20260504030213 64 235 3.0 9.0 0.00 0.00 0.00 54 1008.3
20260504024715 64 41 9.0 15.0 0.00 0.00 0.00 53 1008.3
20260504023214 64 198 3.0 14.0 0.00 0.00 0.00 54 1008.7
20260504021714 62 145 3.0 8.0 0.00 0.00 0.00 60 1008.7
20260504020214 62 156 4.0 14.0 0.00 0.00 0.00 60 1009.0
20260504014715 62 251 8.0 15.0 0.00 0.00 0.00 60 1009.0
20260504013213 62 175 4.0 14.0 0.00 0.00 0.00 61 1009.3
20260504011714 62 146 10.0 12.0 0.00 0.00 0.00 61 1009.3
20260504010214 62 102 2.0 8.0 0.00 0.00 0.00 64 1009.3
20260504004714 62 250 6.0 9.0 0.00 0.00 0.00 63 1009.3
20260504003215 61 175 10.0 17.0 0.00 0.00 0.00 63 1009.3
20260504001714 62 248 6.0 10.0 0.00 0.00 0.00 64 1009.3
20260504000214 61 174 10.0 14.0 0.00 0.00 0.00 64 1009.3
20260503234714 62 277 6.0 8.0 0.00 0.00 0.00 64 1009.7
20260503233215 61 191 8.0 14.0 0.00 0.00 0.00 65 1009.7
20260503231714 61 167 7.0 12.0 0.00 0.00 0.00 65 1009.7
20260503230214 60 158 3.0 9.0 0.00 0.00 0.00 67 1009.7
20260503224714 60 200 7.0 11.0 0.00 0.00 0.00 67 1010.0
20260503223214 59 199 4.0 8.0 0.00 0.00 0.00 69 1009.7
20260503221714 58 171 2.0 9.0 0.00 0.00 0.00 70 1009.7
20260503220214 57 243 1.0 10.0 0.00 0.00 0.00 73 1009.7
20260503214714 56 212 4.0 7.0 0.00 0.00 0.00 74 1009.7
20260503213214 55 192 2.0 3.0 0.00 0.00 0.00 78 1009.7
20260503211713 55 243 5.0 8.0 0.00 0.00 0.00 78 1009.7
20260503210213 56 205 2.0 6.0 0.00 0.00 0.00 77 1009.7
20260503204714 55 235 3.0 8.0 0.00 0.00 0.00 78 1009.7
20260503203214 55 179 2.0 2.0 0.00 0.00 0.00 80 1009.3
20260503201714 55 189 4.0 6.0 0.00 0.00 0.00 81 1009.3
20260503200214 55 208 0.0 3.0 0.00 0.00 0.00 81 1009.3
20260503194715 55 213 1.0 4.0 0.00 0.00 0.00 80 1009.7
20260503193214 54 206 1.0 3.0 0.00 0.00 0.00 81 1009.3
20260503191714 54 175 1.0 3.0 0.00 0.00 0.00 82 1009.3
20260503190214 54 234 2.0 3.0 0.00 0.00 0.00 82 1009.7
20260503184714 54 260 2.0 3.0 0.00 0.00 0.00 82 1010.0
20260503183214 54 175 2.0 4.0 0.00 0.00 0.00 83 1010.0
20260503181714 54 217 2.0 2.0 0.00 0.00 0.00 84 1010.0
20260503180214 54 196 0.0 1.0 0.00 0.00 0.00 84 1010.0
20260503174714 53 218 1.0 3.0 0.00 0.00 0.00 87 1010.4
20260503173214 53 236 0.0 0.0 0.00 0.00 0.00 88 1010.4
20260503171714 53 217 0.0 0.0 0.00 0.00 0.00 88 1010.4
20260503170214 53 201 0.0 3.0 0.00 0.00 0.00 87 1010.4
20260503160214 52 217 1.0 1.0 0.00 0.00 0.00 88 1010.7
20260503150214 53 211 0.0 1.0 0.00 0.00 0.00 89 1010.7
20260503140214 56 167 2.0 3.0 0.00 0.00 0.00 82 1011.0
20260503130214 57 163 1.0 2.0 0.00 0.00 0.61 81 1011.4
20260503120214 57 163 0.0 2.0 0.00 0.00 0.61 80 1011.0
20260503110214 57 211 1.0 2.0 0.00 0.00 0.61 77 1011.0
20260503100214 58 143 0.0 2.0 0.00 0.00 0.61 76 1011.4
20260503090215 57 179 1.0 6.0 0.00 0.00 0.61 79 1011.0
20260503080214 59 204 0.0 2.0 0.00 0.00 0.61 77 1009.7
20260503071714 62 130 2.0 4.0 0.00 0.00 0.61 78 1009.3
20260503070214 63 207 3.0 4.0 0.00 0.00 0.61 78 1009.0